Year,Month,Day,Hour,Minute,Value (Times are PST for temperature in C)
2006,05,17,00,01,11.20
2006,05,17,00,02,11.20
2006,05,17,00,03,11.20
2006,05,17,00,04,11.20
2006,05,17,00,05,11.20
2006,05,17,00,06,11.20
2006,05,17,00,07,11.00
2006,05,17,00,08,11.00
2006,05,17,00,09,11.00
2006,05,17,00,10,11.00
2006,05,17,00,11,11.00
2006,05,17,00,12,11.00
2006,05,17,00,13,11.00
2006,05,17,00,14,11.00
2006,05,17,00,15,11.00
2006,05,17,00,16,11.00
2006,05,17,00,17,11.00
2006,05,17,00,18,11.00
2006,05,17,00,19,11.00
2006,05,17,00,20,11.00
2006,05,17,00,21,11.10
2006,05,17,00,22,11.10
2006,05,17,00,23,11.10
2006,05,17,00,24,11.10
2006,05,17,00,25,11.10
2006,05,17,00,26,11.10
2006,05,17,00,27,11.10
2006,05,17,00,28,11.10
2006,05,17,00,29,11.10
2006,05,17,00,30,11.10
2006,05,17,00,31,11.10
2006,05,17,00,32,11.10
2006,05,17,00,33,11.10
2006,05,17,00,34,11.10
2006,05,17,00,36,10.90
2006,05,17,00,37,10.90
2006,05,17,00,38,10.90
2006,05,17,00,39,10.90
2006,05,17,00,40,10.90
2006,05,17,00,41,10.90
2006,05,17,00,42,10.90
2006,05,17,00,43,10.90
2006,05,17,00,44,10.90
2006,05,17,00,45,10.90
2006,05,17,00,46,10.90
2006,05,17,00,47,10.90
2006,05,17,00,48,10.90
2006,05,17,00,49,10.80
2006,05,17,00,50,10.80
2006,05,17,00,52,10.80
2006,05,17,00,53,10.80
2006,05,17,00,54,10.80
2006,05,17,00,55,10.80
2006,05,17,00,56,10.80
2006,05,17,00,57,10.80
2006,05,17,00,58,10.80
2006,05,17,00,59,10.80
2006,05,17,01,00,10.80
2006,05,17,01,02,10.80
2006,05,17,01,03,10.70
2006,05,17,01,04,10.70
2006,05,17,01,06,10.70
2006,05,17,01,07,10.70
2006,05,17,01,08,10.70
2006,05,17,01,09,10.70
2006,05,17,01,10,10.70
2006,05,17,01,11,10.70
2006,05,17,01,12,10.70
2006,05,17,01,13,10.70
2006,05,17,01,14,10.70
2006,05,17,01,15,10.70
2006,05,17,01,16,10.70
2006,05,17,01,17,10.80
2006,05,17,01,18,10.80
2006,05,17,01,19,10.80
2006,05,17,01,20,10.80
2006,05,17,01,21,10.80
2006,05,17,01,22,10.80
2006,05,17,01,23,10.80
2006,05,17,01,24,10.80
2006,05,17,01,25,10.80
2006,05,17,01,26,10.80
2006,05,17,01,27,10.80
2006,05,17,01,28,10.80
2006,05,17,01,29,10.80
2006,05,17,01,30,10.80
2006,05,17,01,31,10.80
2006,05,17,01,32,10.80
2006,05,17,01,33,10.80
2006,05,17,01,34,10.80
2006,05,17,01,35,10.80
2006,05,17,01,36,10.80
2006,05,17,01,37,10.80
2006,05,17,01,38,10.80
2006,05,17,01,39,10.80
2006,05,17,01,40,10.80
2006,05,17,01,42,10.80
2006,05,17,01,43,10.80
2006,05,17,01,44,10.80
2006,05,17,01,45,10.70
2006,05,17,01,46,10.70
2006,05,17,01,47,10.70
2006,05,17,01,48,10.70
2006,05,17,01,49,10.70
2006,05,17,01,50,10.70
2006,05,17,01,52,10.70
2006,05,17,01,53,10.70
2006,05,17,01,54,10.70
2006,05,17,01,55,10.70
2006,05,17,01,56,10.70
2006,05,17,01,57,10.70
2006,05,17,01,58,10.60
2006,05,17,01,59,10.60
2006,05,17,02,00,10.60
2006,05,17,02,01,10.60
2006,05,17,02,02,10.60
2006,05,17,02,03,10.60
2006,05,17,02,04,10.60
2006,05,17,02,05,10.60
2006,05,17,02,06,10.60
2006,05,17,02,07,10.60
2006,05,17,02,08,10.60
2006,05,17,02,09,10.60
2006,05,17,02,10,10.60
2006,05,17,02,12,10.60
2006,05,17,02,13,10.60
2006,05,17,02,14,10.60
2006,05,17,02,15,10.60
2006,05,17,02,16,10.60
2006,05,17,02,17,10.60
2006,05,17,02,18,10.60
2006,05,17,02,19,10.60
2006,05,17,02,20,10.60
2006,05,17,02,21,10.60
2006,05,17,02,22,10.60
2006,05,17,02,23,10.60
2006,05,17,02,24,10.60
2006,05,17,02,25,10.60
2006,05,17,02,26,10.60
2006,05,17,02,27,10.60
2006,05,17,02,28,10.60
2006,05,17,02,29,10.60
2006,05,17,02,30,10.60
2006,05,17,02,31,10.60
2006,05,17,02,32,10.40
2006,05,17,02,33,10.40
2006,05,17,02,34,10.40
2006,05,17,02,35,10.40
2006,05,17,02,36,10.40
2006,05,17,02,37,10.40
2006,05,17,02,38,10.40
2006,05,17,02,39,10.40
2006,05,17,02,40,10.40
2006,05,17,02,41,10.40
2006,05,17,02,42,10.40
2006,05,17,02,43,10.40
2006,05,17,02,44,10.40
2006,05,17,02,45,10.40
2006,05,17,02,46,10.60
2006,05,17,02,47,10.60
2006,05,17,02,48,10.60
2006,05,17,02,49,10.60
2006,05,17,02,50,10.60
2006,05,17,02,51,10.60
2006,05,17,02,52,10.60
2006,05,17,02,53,10.60
2006,05,17,02,54,10.60
2006,05,17,02,55,10.60
2006,05,17,02,56,10.60
2006,05,17,02,57,10.60
2006,05,17,02,58,10.60
2006,05,17,02,59,10.60
2006,05,17,03,00,10.60
2006,05,17,03,01,10.60
2006,05,17,03,02,10.60
2006,05,17,03,03,10.60
2006,05,17,03,04,10.50
2006,05,17,03,05,10.50
2006,05,17,03,06,10.50
2006,05,17,03,07,10.50
2006,05,17,03,08,10.50
2006,05,17,03,09,10.50
2006,05,17,03,10,10.50
2006,05,17,03,11,10.50
2006,05,17,03,12,10.50
2006,05,17,03,13,10.50
2006,05,17,03,14,10.50
2006,05,17,03,15,10.50
2006,05,17,03,16,10.50
2006,05,17,03,17,10.50
2006,05,17,03,18,10.50
2006,05,17,03,19,10.50
2006,05,17,03,20,10.50
2006,05,17,03,21,10.50
2006,05,17,03,22,10.50
2006,05,17,03,23,10.50
2006,05,17,03,24,10.50
2006,05,17,03,25,10.50
2006,05,17,03,26,10.50
2006,05,17,03,27,10.50
2006,05,17,03,28,10.70
2006,05,17,03,29,10.70
2006,05,17,03,30,10.70
2006,05,17,03,31,10.70
2006,05,17,03,33,10.70
2006,05,17,03,34,10.70
2006,05,17,03,35,10.70
2006,05,17,03,36,10.70
2006,05,17,03,37,10.70
2006,05,17,03,38,10.70
2006,05,17,03,39,10.70
2006,05,17,03,40,10.70
2006,05,17,03,41,10.70
2006,05,17,03,42,10.50
2006,05,17,03,43,10.50
2006,05,17,03,44,10.50
2006,05,17,03,45,10.50
2006,05,17,03,46,10.50
2006,05,17,03,47,10.50
2006,05,17,03,48,10.50
2006,05,17,03,49,10.50
2006,05,17,03,50,10.50
2006,05,17,03,51,10.50
2006,05,17,03,52,10.50
2006,05,17,03,53,10.50
2006,05,17,03,54,10.50
2006,05,17,03,55,10.50
2006,05,17,03,56,10.40
2006,05,17,03,57,10.40
2006,05,17,03,58,10.40
2006,05,17,03,59,10.40
2006,05,17,04,00,10.40
2006,05,17,04,01,10.40
2006,05,17,04,03,10.40
2006,05,17,04,04,10.40
2006,05,17,04,05,10.40
2006,05,17,04,06,10.40
2006,05,17,04,07,10.40
2006,05,17,04,08,10.40
2006,05,17,04,09,10.40
2006,05,17,04,10,10.50
2006,05,17,04,11,10.50
2006,05,17,04,12,10.50
2006,05,17,04,13,10.50
2006,05,17,04,14,10.50
2006,05,17,04,15,10.50
2006,05,17,04,16,10.50
2006,05,17,04,17,10.50
2006,05,17,04,18,10.50
2006,05,17,04,19,10.50
2006,05,17,04,20,10.50
2006,05,17,04,21,10.50
2006,05,17,04,22,10.50
2006,05,17,04,23,10.50
2006,05,17,04,24,10.70
2006,05,17,04,25,10.70
2006,05,17,04,26,10.70
2006,05,17,04,27,10.70
2006,05,17,04,29,10.70
2006,05,17,04,30,10.70
2006,05,17,04,31,10.70
2006,05,17,04,32,10.70
2006,05,17,04,33,10.70
2006,05,17,04,34,10.70
2006,05,17,04,35,10.70
2006,05,17,04,36,10.70
2006,05,17,04,37,10.70
2006,05,17,04,38,10.80
2006,05,17,04,39,10.80
2006,05,17,04,40,10.80
2006,05,17,04,42,10.80
2006,05,17,04,43,10.80
2006,05,17,04,44,10.80
2006,05,17,04,45,10.80
2006,05,17,04,46,10.80
2006,05,17,04,47,10.80
2006,05,17,04,48,10.80
2006,05,17,04,49,10.80
2006,05,17,04,50,10.80
2006,05,17,04,51,10.80
2006,05,17,04,52,11.00
2006,05,17,04,53,11.00
2006,05,17,04,54,11.00
2006,05,17,04,55,11.00
2006,05,17,04,56,11.00
2006,05,17,04,57,11.00
2006,05,17,04,58,11.00
2006,05,17,04,59,11.00
2006,05,17,05,00,11.00
2006,05,17,05,01,11.00
2006,05,17,05,02,11.00
2006,05,17,05,03,11.00
2006,05,17,05,04,11.00
2006,05,17,05,05,11.00
2006,05,17,05,06,11.20
2006,05,17,05,07,11.20
2006,05,17,05,08,11.20
2006,05,17,05,09,11.20
2006,05,17,05,10,11.20
2006,05,17,05,11,11.20
2006,05,17,05,12,11.20
2006,05,17,05,13,11.20
2006,05,17,05,14,11.20
2006,05,17,05,15,11.20
2006,05,17,05,16,11.20
2006,05,17,05,17,11.20
2006,05,17,05,18,11.20
2006,05,17,05,19,11.20
2006,05,17,05,20,11.20
2006,05,17,05,21,11.20
2006,05,17,05,22,11.20
2006,05,17,05,23,11.20
2006,05,17,05,25,11.20
2006,05,17,05,26,11.20
2006,05,17,05,27,11.20
2006,05,17,05,28,11.20
2006,05,17,05,29,11.20
2006,05,17,05,30,11.20
2006,05,17,05,31,11.20
2006,05,17,05,32,11.20
2006,05,17,05,33,11.20
2006,05,17,05,34,11.30
2006,05,17,05,35,11.30
2006,05,17,05,36,11.30
2006,05,17,05,37,11.30
2006,05,17,05,38,11.30
2006,05,17,05,39,11.30
2006,05,17,05,40,11.30
2006,05,17,05,41,11.30
2006,05,17,05,42,11.30
2006,05,17,05,43,11.30
2006,05,17,05,44,11.30
2006,05,17,05,45,11.30
2006,05,17,05,46,11.30
2006,05,17,05,47,11.30
2006,05,17,05,48,11.20
2006,05,17,05,49,11.20
2006,05,17,05,50,11.20
2006,05,17,05,51,11.20
2006,05,17,05,52,11.20
2006,05,17,05,53,11.20
2006,05,17,05,54,11.20
2006,05,17,05,55,11.20
2006,05,17,05,56,11.20
2006,05,17,05,57,11.20
2006,05,17,05,58,11.20
2006,05,17,05,59,11.20
2006,05,17,06,00,11.20
2006,05,17,06,01,11.20
2006,05,17,06,02,10.90
2006,05,17,06,03,10.90
2006,05,17,06,04,10.90
2006,05,17,06,05,10.90
2006,05,17,06,06,10.90
2006,05,17,06,07,10.90
2006,05,17,06,08,10.90
2006,05,17,06,09,10.90
2006,05,17,06,10,10.90
2006,05,17,06,11,10.90
2006,05,17,06,12,10.90
2006,05,17,06,13,10.90
2006,05,17,06,14,10.90
2006,05,17,06,16,10.90
2006,05,17,06,17,10.30
2006,05,17,06,18,10.30
2006,05,17,06,19,10.30
2006,05,17,06,20,10.30
2006,05,17,06,21,10.30
2006,05,17,06,22,10.30
2006,05,17,06,23,10.30
2006,05,17,06,24,10.30
2006,05,17,06,25,10.30
2006,05,17,06,26,10.30
2006,05,17,06,27,10.30
2006,05,17,06,28,10.30
2006,05,17,06,29,10.30
2006,05,17,06,30,10.20
2006,05,17,06,31,10.20
2006,05,17,06,32,10.20
2006,05,17,06,33,10.20
2006,05,17,06,34,10.20
2006,05,17,06,35,10.20
2006,05,17,06,36,10.00
2006,05,17,06,37,10.00
2006,05,17,06,38,10.00
2006,05,17,06,39,10.00
2006,05,17,06,40,10.00
2006,05,17,06,41,10.00
2006,05,17,06,42,10.00
2006,05,17,06,43,10.00
2006,05,17,06,44,10.00
2006,05,17,06,45,10.00
2006,05,17,06,46,10.00
2006,05,17,06,47,10.00
2006,05,17,06,48,10.00
2006,05,17,06,49,10.00
2006,05,17,06,50,9.70
2006,05,17,06,51,9.70
2006,05,17,06,52,9.70
2006,05,17,06,53,9.70
2006,05,17,06,54,9.70
2006,05,17,06,56,9.70
2006,05,17,06,57,9.70
2006,05,17,06,58,9.70
2006,05,17,06,59,9.70
2006,05,17,07,00,9.70
2006,05,17,07,01,9.70
2006,05,17,07,02,9.70
2006,05,17,07,03,9.70
2006,05,17,07,04,9.70
2006,05,17,07,05,9.70
2006,05,17,07,06,9.70
2006,05,17,07,07,9.70
2006,05,17,07,09,9.70
2006,05,17,07,10,9.70
2006,05,17,07,11,9.70
2006,05,17,07,12,9.70
2006,05,17,07,13,9.70
2006,05,17,07,14,9.70
2006,05,17,07,15,9.70
2006,05,17,07,16,9.70
2006,05,17,07,17,9.70
2006,05,17,07,18,9.80
2006,05,17,07,19,9.80
2006,05,17,07,20,9.80
2006,05,17,07,21,9.80
2006,05,17,07,22,9.80
2006,05,17,07,24,9.80
2006,05,17,07,25,9.80
2006,05,17,07,26,9.80
2006,05,17,07,27,9.80
2006,05,17,07,28,9.80
2006,05,17,07,29,9.80
2006,05,17,07,30,9.80
2006,05,17,07,31,9.80
2006,05,17,07,32,10.00
2006,05,17,07,34,10.00
2006,05,17,07,35,10.00
2006,05,17,07,36,10.00
2006,05,17,07,37,10.00
2006,05,17,07,38,10.00
2006,05,17,07,39,10.00
2006,05,17,07,40,10.00
2006,05,17,07,41,10.00
2006,05,17,07,42,10.00
2006,05,17,07,43,10.00
2006,05,17,07,45,10.00
2006,05,17,07,46,9.90
2006,05,17,07,47,9.90
2006,05,17,07,48,9.90
2006,05,17,07,49,9.90
2006,05,17,07,50,9.90
2006,05,17,07,51,9.90
2006,05,17,07,52,9.90
2006,05,17,07,53,9.90
2006,05,17,07,54,9.90
2006,05,17,07,55,9.90
2006,05,17,07,56,9.90
2006,05,17,07,57,9.90
2006,05,17,07,58,9.90
2006,05,17,07,59,9.90
2006,05,17,08,00,10.00
2006,05,17,08,02,10.00
2006,05,17,08,03,10.00
2006,05,17,08,04,10.00
2006,05,17,08,05,10.00
2006,05,17,08,06,10.00
2006,05,17,08,07,10.00
2006,05,17,08,08,10.00
2006,05,17,08,09,10.00
2006,05,17,08,10,10.00
2006,05,17,08,11,10.00
2006,05,17,08,13,10.00
2006,05,17,08,14,9.80
2006,05,17,08,15,9.80
2006,05,17,08,16,9.80
2006,05,17,08,17,9.80
2006,05,17,08,18,9.80
2006,05,17,08,19,9.80
2006,05,17,08,20,9.80
2006,05,17,08,21,9.80
2006,05,17,08,49,9.30
2006,05,17,08,51,9.30
2006,05,17,08,52,9.30
2006,05,17,08,53,9.30
2006,05,17,08,54,9.30
2006,05,17,08,55,9.30
2006,05,17,08,56,9.30
2006,05,17,08,57,9.30
2006,05,17,08,59,9.30
2006,05,17,09,00,9.30
2006,05,17,09,01,9.30
2006,05,17,09,02,9.30
2006,05,17,09,03,9.30
2006,05,17,09,04,9.30
2006,05,17,09,05,9.30
2006,05,17,09,06,9.30
2006,05,17,09,07,9.30
2006,05,17,09,08,9.30
2006,05,17,09,09,9.30
2006,05,17,09,10,9.60
2006,05,17,09,11,9.60
2006,05,17,09,12,9.60
2006,05,17,09,13,9.60
2006,05,17,09,14,9.60
2006,05,17,09,15,9.60
2006,05,17,09,16,9.60
2006,05,17,09,17,9.60
2006,05,17,09,18,9.60
2006,05,17,09,19,9.60
2006,05,17,09,20,9.60
2006,05,17,09,21,9.60
2006,05,17,09,22,9.60
2006,05,17,09,23,9.60
2006,05,17,09,24,9.50
2006,05,17,09,25,9.50
2006,05,17,09,26,9.50
2006,05,17,09,27,9.50
2006,05,17,09,28,9.50
2006,05,17,09,29,9.50
2006,05,17,09,30,9.50
2006,05,17,09,31,9.50
2006,05,17,09,32,9.50
2006,05,17,09,33,9.50
2006,05,17,09,34,9.50
2006,05,17,09,35,9.50
2006,05,17,09,37,9.50
2006,05,17,09,38,9.60
2006,05,17,09,39,9.60
2006,05,17,09,40,9.60
2006,05,17,09,42,9.60
2006,05,17,09,43,9.60
2006,05,17,09,44,9.60
2006,05,17,09,45,9.60
2006,05,17,09,46,9.60
2006,05,17,09,47,9.60
2006,05,17,09,48,9.60
2006,05,17,09,49,9.60
2006,05,17,09,50,9.60
2006,05,17,09,51,9.60
2006,05,17,09,52,9.50
2006,05,17,09,53,9.50
2006,05,17,09,54,9.50
2006,05,17,09,55,9.50
2006,05,17,09,56,9.50
2006,05,17,09,57,9.60
2006,05,17,09,58,9.60
2006,05,17,09,59,9.60
2006,05,17,10,00,9.60
2006,05,17,10,01,9.60
2006,05,17,10,02,9.60
2006,05,17,10,03,9.60
2006,05,17,10,04,9.60
2006,05,17,10,05,9.60
2006,05,17,10,06,9.60
2006,05,17,10,07,9.60
2006,05,17,10,08,9.60
2006,05,17,10,09,9.60
2006,05,17,10,10,9.60
2006,05,17,10,11,9.60
2006,05,17,10,12,9.60
2006,05,17,10,13,9.60
2006,05,17,10,14,9.60
2006,05,17,10,15,9.60
2006,05,17,10,16,9.60
2006,05,17,10,17,9.60
2006,05,17,10,18,9.60
2006,05,17,10,19,9.60
2006,05,17,10,20,9.20
2006,05,17,10,21,9.20
2006,05,17,10,22,9.20
2006,05,17,10,23,9.20
2006,05,17,10,24,9.20
2006,05,17,10,25,9.20
2006,05,17,10,26,9.20
2006,05,17,10,27,9.20
2006,05,17,10,28,9.20
2006,05,17,10,29,9.20
2006,05,17,10,30,9.20
2006,05,17,10,31,9.20
2006,05,17,10,32,9.20
2006,05,17,10,33,9.20
2006,05,17,10,34,9.30
2006,05,17,10,35,9.30
2006,05,17,10,36,9.30
2006,05,17,10,37,9.30
2006,05,17,10,38,9.30
2006,05,17,10,39,9.30
2006,05,17,10,40,9.30
2006,05,17,10,41,9.30
2006,05,17,10,42,9.30
2006,05,17,10,43,9.30
2006,05,17,10,44,9.30
2006,05,17,10,46,9.30
2006,05,17,10,47,9.30
2006,05,17,10,48,9.20
2006,05,17,10,49,9.20
2006,05,17,10,50,9.20
2006,05,17,10,51,9.20
2006,05,17,10,52,9.20
2006,05,17,10,53,9.20
2006,05,17,10,54,9.20
2006,05,17,10,55,9.20
2006,05,17,10,56,9.20
2006,05,17,10,58,9.20
2006,05,17,10,59,9.20
2006,05,17,11,00,9.20
2006,05,17,11,02,9.40
2006,05,17,11,03,9.40
2006,05,17,11,04,9.40
2006,05,17,11,05,9.40
2006,05,17,11,06,9.40
2006,05,17,11,07,9.40
2006,05,17,11,08,9.40
2006,05,17,11,09,9.40
2006,05,17,11,10,9.40
2006,05,17,11,11,9.40
2006,05,17,11,12,9.40
2006,05,17,11,13,9.40
2006,05,17,11,14,9.40
2006,05,17,11,15,9.40
2006,05,17,11,16,9.70
2006,05,17,11,17,9.70
2006,05,17,11,18,9.70
2006,05,17,11,19,9.70
2006,05,17,11,20,9.70
2006,05,17,11,21,9.70
2006,05,17,11,22,9.70
2006,05,17,11,23,9.70
2006,05,17,11,24,9.70
2006,05,17,11,25,9.70
2006,05,17,11,26,9.70
2006,05,17,11,27,9.70
2006,05,17,11,28,9.70
2006,05,17,11,29,9.70
2006,05,17,11,30,9.70
2006,05,17,11,31,9.70
2006,05,17,11,32,9.70
2006,05,17,11,33,9.70
2006,05,17,11,34,9.70
2006,05,17,11,35,9.70
2006,05,17,11,36,9.70
2006,05,17,11,38,9.70
2006,05,17,11,39,9.70
2006,05,17,11,40,9.70
2006,05,17,11,41,9.70
2006,05,17,11,42,9.70
2006,05,17,11,44,9.40
2006,05,17,11,45,9.40
2006,05,17,11,46,9.40
2006,05,17,11,47,9.40
2006,05,17,11,48,9.40
2006,05,17,11,49,9.40
2006,05,17,11,50,9.40
2006,05,17,11,51,9.40
2006,05,17,11,52,9.40
2006,05,17,11,53,9.40
2006,05,17,11,54,9.40
2006,05,17,11,55,9.40
2006,05,17,11,56,9.40
2006,05,17,11,57,9.40
2006,05,17,11,58,9.60
2006,05,17,11,59,9.60
2006,05,17,12,00,9.60
2006,05,17,12,01,9.60
2006,05,17,12,02,9.60
2006,05,17,12,03,9.60
2006,05,17,12,04,9.60
2006,05,17,12,05,9.60
2006,05,17,12,06,9.60
2006,05,17,12,07,9.60
2006,05,17,12,08,9.60
2006,05,17,12,09,9.60
2006,05,17,12,10,9.60
2006,05,17,12,11,9.60
2006,05,17,12,12,9.30
2006,05,17,12,13,9.30
2006,05,17,12,14,9.30
2006,05,17,12,15,9.30
2006,05,17,12,16,9.40
2006,05,17,12,17,9.40
2006,05,17,12,18,9.40
2006,05,17,12,19,9.40
2006,05,17,12,20,9.40
2006,05,17,12,21,9.40
2006,05,17,12,22,9.40
2006,05,17,12,23,9.40
2006,05,17,12,24,9.40
2006,05,17,12,25,9.40
2006,05,17,12,26,9.30
2006,05,17,12,27,9.30
2006,05,17,12,28,9.30
2006,05,17,12,29,9.30
2006,05,17,12,30,9.30
2006,05,17,12,31,9.30
2006,05,17,12,32,9.30
2006,05,17,12,33,9.30
2006,05,17,12,34,9.30
2006,05,17,12,35,9.30
2006,05,17,12,36,9.30
2006,05,17,12,37,9.30
2006,05,17,12,39,9.30
2006,05,17,12,40,9.30
2006,05,17,12,42,9.30
2006,05,17,12,43,9.30
2006,05,17,12,44,9.30
2006,05,17,12,45,9.30
2006,05,17,12,46,9.30
2006,05,17,12,47,9.30
2006,05,17,12,48,9.30
2006,05,17,12,49,9.30
2006,05,17,12,50,9.30
2006,05,17,12,51,9.30
2006,05,17,12,52,9.30
2006,05,17,12,53,9.30
2006,05,17,12,54,9.50
2006,05,17,12,55,9.50
2006,05,17,12,57,9.50
2006,05,17,12,58,9.50
2006,05,17,12,59,9.50
2006,05,17,13,00,9.50
2006,05,17,13,02,9.50
2006,05,17,13,03,9.50
2006,05,17,13,04,9.50
2006,05,17,13,05,9.50
2006,05,17,13,06,9.50
2006,05,17,13,07,9.50
2006,05,17,13,08,9.70
2006,05,17,13,09,9.70
2006,05,17,13,10,9.70
2006,05,17,13,11,9.70
2006,05,17,13,12,9.70
2006,05,17,13,13,9.70
2006,05,17,13,14,9.70
2006,05,17,13,15,9.70
2006,05,17,13,16,9.70
2006,05,17,13,17,9.70
2006,05,17,13,18,9.70
2006,05,17,13,19,9.70
2006,05,17,13,20,9.70
2006,05,17,13,22,9.60
2006,05,17,13,23,9.60
2006,05,17,13,24,9.60
2006,05,17,13,25,9.60
2006,05,17,13,26,9.60
2006,05,17,13,27,9.70
2006,05,17,13,28,9.70
2006,05,17,13,29,9.70
2006,05,17,13,30,9.70
2006,05,17,13,31,9.70
2006,05,17,13,32,9.70
2006,05,17,13,33,9.70
2006,05,17,13,34,9.70
2006,05,17,13,35,9.70
2006,05,17,13,36,9.70
2006,05,17,13,37,9.70
2006,05,17,13,38,9.70
2006,05,17,13,39,9.70
2006,05,17,13,40,9.70
2006,05,17,13,41,9.70
2006,05,17,13,42,9.70
2006,05,17,13,43,9.70
2006,05,17,13,44,9.70
2006,05,17,13,45,9.70
2006,05,17,13,47,9.70
2006,05,17,13,48,9.70
2006,05,17,13,49,9.70
2006,05,17,13,50,9.90
2006,05,17,13,51,9.90
2006,05,17,13,52,9.90
2006,05,17,13,53,9.90
2006,05,17,13,54,9.90
2006,05,17,13,55,9.90
2006,05,17,13,56,9.90
2006,05,17,13,57,9.90
2006,05,17,13,58,9.90
2006,05,17,13,59,9.90
2006,05,17,14,00,9.90
2006,05,17,14,01,9.90
2006,05,17,14,02,9.90
2006,05,17,14,03,9.90
2006,05,17,14,04,9.60
2006,05,17,14,05,9.60
2006,05,17,14,06,9.60
2006,05,17,14,07,9.60
2006,05,17,14,09,9.60
2006,05,17,14,10,9.60
2006,05,17,14,11,9.60
2006,05,17,14,12,9.60
2006,05,17,14,13,9.60
2006,05,17,14,14,9.60
2006,05,17,14,15,9.60
2006,05,17,14,16,9.60
2006,05,17,14,17,9.60
2006,05,17,14,18,9.60
2006,05,17,14,19,9.60
2006,05,17,14,21,9.60
2006,05,17,14,22,9.60
2006,05,17,14,23,9.60
2006,05,17,14,24,9.60
2006,05,17,14,25,9.60
2006,05,17,14,26,9.60
2006,05,17,14,27,9.60
2006,05,17,14,28,9.60
2006,05,17,14,29,9.60
2006,05,17,14,30,9.60
2006,05,17,14,31,9.60
2006,05,17,14,32,10.00
2006,05,17,14,33,10.00
2006,05,17,14,34,10.00
2006,05,17,14,35,10.00
2006,05,17,14,36,10.00
2006,05,17,14,37,10.00
2006,05,17,14,38,10.00
2006,05,17,14,39,10.00
2006,05,17,14,40,10.00
2006,05,17,14,41,10.00
2006,05,17,14,42,10.00
2006,05,17,14,43,10.00
2006,05,17,14,44,10.00
2006,05,17,14,45,10.00
2006,05,17,14,46,9.80
2006,05,17,14,47,9.80
2006,05,17,14,48,9.80
2006,05,17,14,49,9.80
2006,05,17,14,50,9.80
2006,05,17,14,51,9.80
2006,05,17,14,53,9.80
2006,05,17,14,54,9.80
2006,05,17,14,55,9.80
2006,05,17,14,56,9.80
2006,05,17,14,57,9.80
2006,05,17,14,58,9.80
2006,05,17,14,59,9.80
2006,05,17,15,00,9.70
2006,05,17,15,01,9.70
2006,05,17,15,02,9.70
2006,05,17,15,03,9.70
2006,05,17,15,04,9.70
2006,05,17,15,06,9.70
2006,05,17,15,07,9.70
2006,05,17,15,08,9.70
2006,05,17,15,09,9.70
2006,05,17,15,10,9.70
2006,05,17,15,11,9.70
2006,05,17,15,12,9.70
2006,05,17,15,13,9.70
2006,05,17,15,14,9.80
2006,05,17,15,15,9.80
2006,05,17,15,17,9.80
2006,05,17,15,18,9.80
2006,05,17,15,19,9.80
2006,05,17,15,20,9.80
2006,05,17,15,21,9.80
2006,05,17,15,23,9.80
2006,05,17,15,24,9.80
2006,05,17,15,25,9.80
2006,05,17,15,26,9.80
2006,05,17,15,27,9.80
2006,05,17,15,28,9.80
2006,05,17,15,29,9.80
2006,05,17,15,30,9.80
2006,05,17,15,31,9.80
2006,05,17,15,32,9.80
2006,05,17,15,33,9.80
2006,05,17,15,34,9.80
2006,05,17,15,35,9.80
2006,05,17,15,36,9.80
2006,05,17,15,37,9.80
2006,05,17,15,38,9.80
2006,05,17,15,39,9.80
2006,05,17,15,40,9.80
2006,05,17,15,42,10.00
2006,05,17,15,43,10.00
2006,05,17,15,44,10.00
2006,05,17,15,45,10.00
2006,05,17,15,46,10.00
2006,05,17,15,47,10.00
2006,05,17,15,48,10.00
2006,05,17,15,49,10.00
2006,05,17,15,50,10.00
2006,05,17,15,51,10.00
2006,05,17,15,52,10.00
2006,05,17,15,53,10.00
2006,05,17,15,54,10.00
2006,05,17,15,55,10.00
2006,05,17,15,56,10.20
2006,05,17,15,57,10.20
2006,05,17,15,58,10.20
2006,05,17,15,59,10.20
2006,05,17,16,00,10.20
2006,05,17,16,01,10.20
2006,05,17,16,02,10.20
2006,05,17,16,03,10.20
2006,05,17,16,04,10.20
2006,05,17,16,05,10.20
2006,05,17,16,06,10.20
2006,05,17,16,07,10.20
2006,05,17,16,08,10.20
2006,05,17,16,09,10.20
2006,05,17,16,10,10.30
2006,05,17,16,11,10.30
2006,05,17,16,12,10.30
2006,05,17,16,13,10.30
2006,05,17,16,14,10.30
2006,05,17,16,15,10.30
2006,05,17,16,16,10.30
2006,05,17,16,17,10.30
2006,05,17,16,18,10.30
2006,05,17,16,19,10.30
2006,05,17,16,20,10.30
2006,05,17,16,22,10.30
2006,05,17,16,23,10.30
2006,05,17,16,24,10.10
2006,05,17,16,25,10.10
2006,05,17,16,26,10.10
2006,05,17,16,27,10.10
2006,05,17,16,28,10.10
2006,05,17,16,29,10.10
2006,05,17,16,30,10.10
2006,05,17,16,31,10.10
2006,05,17,16,32,10.10
2006,05,17,16,33,10.10
2006,05,17,16,34,10.10
2006,05,17,16,35,10.10
2006,05,17,16,36,10.10
2006,05,17,16,37,10.10
2006,05,17,16,38,9.70
2006,05,17,16,39,9.70
2006,05,17,16,40,9.70
2006,05,17,16,41,9.70
2006,05,17,16,42,9.70
2006,05,17,16,43,9.70
2006,05,17,16,44,9.70
2006,05,17,16,45,9.70
2006,05,17,16,46,9.70
2006,05,17,16,47,9.70
2006,05,17,16,48,9.70
2006,05,17,16,49,9.70
2006,05,17,16,50,9.70
2006,05,17,16,51,9.70
2006,05,17,16,52,9.70
2006,05,17,16,53,9.70
2006,05,17,16,54,9.70
2006,05,17,16,55,9.70
2006,05,17,16,56,9.70
2006,05,17,16,57,9.70
2006,05,17,16,58,9.70
2006,05,17,16,59,9.70
2006,05,17,17,00,9.70
2006,05,17,17,01,9.70
2006,05,17,17,02,9.70
2006,05,17,17,03,9.70
2006,05,17,17,04,9.70
2006,05,17,17,05,9.70
2006,05,17,17,06,9.90
2006,05,17,17,07,9.90
2006,05,17,17,08,9.90
2006,05,17,17,09,9.90
2006,05,17,17,10,9.90
2006,05,17,17,12,9.90
2006,05,17,17,13,9.90
2006,05,17,17,14,9.90
2006,05,17,17,15,9.90
2006,05,17,17,16,9.90
2006,05,17,17,17,9.90
2006,05,17,17,18,9.90
2006,05,17,17,19,9.90
2006,05,17,17,20,10.20
2006,05,17,17,22,10.20
2006,05,17,17,23,10.20
2006,05,17,17,24,10.20
2006,05,17,17,25,10.20
2006,05,17,17,26,10.20
2006,05,17,17,27,10.20
2006,05,17,17,28,10.20
2006,05,17,17,29,10.20
2006,05,17,17,30,10.20
2006,05,17,17,31,10.20
2006,05,17,17,32,10.20
2006,05,17,17,33,10.20
2006,05,17,17,34,10.60
2006,05,17,17,35,10.60
2006,05,17,17,36,10.60
2006,05,17,17,37,10.60
2006,05,17,17,38,10.60
2006,05,17,17,39,10.60
2006,05,17,17,40,10.60
2006,05,17,17,41,10.60
2006,05,17,17,42,10.60
2006,05,17,17,43,10.60
2006,05,17,17,44,10.60
2006,05,17,17,45,10.60
2006,05,17,17,46,10.60
2006,05,17,17,48,10.70
2006,05,17,17,49,10.70
2006,05,17,17,50,10.70
2006,05,17,17,52,10.70
2006,05,17,17,54,10.70
2006,05,17,17,55,10.70
2006,05,17,17,56,10.70
2006,05,17,17,57,10.70
2006,05,17,17,58,10.70
2006,05,17,17,59,10.70
2006,05,17,18,00,10.70
2006,05,17,18,01,10.70
2006,05,17,18,02,11.10
2006,05,17,18,03,11.10
2006,05,17,18,04,11.10
2006,05,17,18,05,11.10
2006,05,17,18,06,11.10
2006,05,17,18,07,11.10
2006,05,17,18,08,11.10
2006,05,17,18,09,11.10
2006,05,17,18,10,11.10
2006,05,17,18,11,11.10
2006,05,17,18,12,11.10
2006,05,17,18,13,11.10
2006,05,17,18,15,11.10
2006,05,17,18,16,11.30
2006,05,17,18,17,11.30
2006,05,17,18,18,11.30
2006,05,17,18,19,11.30
2006,05,17,18,20,11.30
2006,05,17,18,22,11.30
2006,05,17,18,23,11.30
2006,05,17,18,24,11.30
2006,05,17,18,25,11.30
2006,05,17,18,26,11.30
2006,05,17,18,27,11.30
2006,05,17,18,28,11.30
2006,05,17,18,29,11.30
2006,05,17,18,30,11.80
2006,05,17,18,31,11.80
2006,05,17,18,32,11.80
2006,05,17,18,33,11.80
2006,05,17,18,34,11.80
2006,05,17,18,35,11.80
2006,05,17,18,36,11.80
2006,05,17,18,37,11.80
2006,05,17,18,38,11.80
2006,05,17,18,39,11.80
2006,05,17,18,40,11.80
2006,05,17,18,41,11.80
2006,05,17,18,43,11.80
2006,05,17,18,44,11.80
2006,05,17,18,45,11.80
2006,05,17,18,46,11.80
2006,05,17,18,48,11.80
2006,05,17,18,49,11.80
2006,05,17,18,50,11.80
2006,05,17,18,51,11.80
2006,05,17,18,52,11.80
2006,05,17,18,53,11.80
2006,05,17,18,54,11.80
2006,05,17,18,55,11.80
2006,05,17,18,56,11.80
2006,05,17,18,57,11.80
2006,05,17,18,58,11.40
2006,05,17,18,59,11.40
2006,05,17,19,00,11.40